Terug naar catalogus

SHIYAN-33

ActiefMilitairSSO
NORAD 68405·PAYLOAD·🇨🇳 China

Gelanceerd Mar 27, 2026 vanaf Jiuquan Satellite Launch Center

Loading…

Volgende Passages (komende 24 uur)

TLE

VersSource: Space-Track

Epoch: Sep 14, 2026, 21:31 UTC

1 68405U 26064A   26257.89705047  .00004614  00000-0  18113-3 0  9995
2 68405  97.4546 333.0615 0025399 348.8142  11.2528 15.25932285 26165

Volg SHIYAN-33 in realtime met AllMySat

Download on the App Store